カタログに戻る

FENGYUN 1C DEB

運用中PO
NORAD 31419·DEBRIS·🇨🇳 China

打ち上げ May 10, 1999 から Taiyuan Satellite Launch Center

Loading…

次のパス (今後24時間)

TLE

最新Source: Space-Track

元期: Sep 14, 2026, 08:44 UTC

1 31419U 99025BTF 26257.36395799  .00006735  00000-0  97379-3 0  9995
2 31419  98.7833  98.4203 0038522  54.1824 306.2953 14.76035038690873

AllMySatでFENGYUN 1C DEBをリアルタイム追跡

Download on the App Store